This is the latest recevied weather packets stored in our database for station/object KI6SYE. If no packets are shown the sender has not sent any weather packets the latest 10 day(s).
| Time | Temp. | Humidity | Pressure | Rain* | Wind** | Luminosity | Snow |
|---|---|---|---|---|---|---|---|
| 1788012620 | 22.22° C | 88% | 1011.7 hPa | 0 mm | - | 38 W/m² | - |
| 1788012316 | 22.22° C | 88% | 1011.6 hPa | 0 mm | - | 31 W/m² | - |
| 1788012011 | 22.22° C | 88% | 1011.5 hPa | 0 mm | - | 25 W/m² | - |
| 1788011708 | 22.22° C | 89% | 1011.7 hPa | 0 mm | - | 21 W/m² | - |
| 1788011398 | 22.22° C | 89% | 1011.3 hPa | 0 mm | - | 18 W/m² | - |
| 1788011098 | 21.67° C | 89% | 1011.3 hPa | 0 mm | - | 15 W/m² | - |
| 1788010793 | 21.67° C | 89% | 1011.6 hPa | 0 mm | - | 12 W/m² | - |
| 1788010492 | 22.22° C | 88% | 1011.4 hPa | 0 mm | - | 8 W/m² | - |
| 1788010186 | 21.67° C | 88% | 1011.5 hPa | 0 mm | - | 5 W/m² | - |
| 1788009881 | 21.67° C | 88% | 1011.5 hPa | 0 mm | - | 3 W/m² | - |
| 1788009578 | 21.67° C | 88% | 1011.2 hPa | 0 mm | - | 2 W/m² | - |
| 1788009273 | 21.67° C | 88% | 1011.1 hPa | 0 mm | - | 1 W/m² | - |
| 1788008968 | 21.67° C | 87% | 1011 hPa | 0 mm | - | 0 W/m² | - |
| 1788008665 | 22.22° C | 87% | 1011.2 hPa | 0 mm | - | 0 W/m² | - |
| 1788008362 | 22.22° C | 87% | 1011.4 hPa | 0 mm | - | 0 W/m² | - |
| 1788008060 | 22.22° C | 87% | 1011.4 hPa | 0 mm | - | 0 W/m² | - |
| 1788007759 | 22.22° C | 87% | 1011.4 hPa | 0 mm | - | 0 W/m² | - |
| 1788007454 | 22.22° C | 87% | 1011.1 hPa | 0 mm | - | 0 W/m² | - |
| 1788007153 | 22.22° C | 87% | 1010.9 hPa | 0 mm | - | 0 W/m² | - |
| 1788006853 | 22.22° C | 86% | 1011.2 hPa | 0 mm | - | 0 W/m² | - |
| 1788006547 | 22.22° C | 86% | 1011.3 hPa | 0 mm | - | 0 W/m² | - |
| 1788006242 | 22.22° C | 86% | 1011.1 hPa | 0 mm | - | 0 W/m² | - |
| 1788005942 | 22.22° C | 86% | 1011 hPa | 0 mm | - | 0 W/m² | - |
| 1788005636 | 22.22° C | 86% | 1011.1 hPa | 0 mm | - | 0 W/m² | - |
| 1788005335 | 22.22° C | 86% | 1011 hPa | 0 mm | - | 0 W/m² | - |
* Rain latest hour (hover to see other rain measurements)
** Current wind speed in m/s (hover to see current wind gust speed)